{"data":{"norad_id":51143,"intl_designator":"2022-005AR","name":"STARLINK-3184","alt_names":[],"object_type":"PAYLOAD","status":"ACTIVE","operator":null,"country":"US","launch_date":"2022-01-19","launch_site_code":"AFETR","launch_vehicle":null,"mission":null,"orbit_class":"UNKNOWN","rcs_meters":null,"size_class":null,"mass_kg":null,"dimensions":null,"purposes":["comms"],"wikipedia_slug":null,"has_3d_model":false,"image_url":null,"decayed_at":null,"tle_current":{"epoch":"2026-05-25T04:38:34.276128Z","epoch_age_seconds":65107,"freshness":"FRESH","line1":"1 51143U 22005AR  26145.19345227 -.00000278  00000+0  61583-6 0  9990","line2":"2 51143  53.2139 325.6826 0001238  89.3483 270.7651 15.08831992240145","mean_motion":15.08831992,"eccentricity":0.0001238,"inclination_deg":53.2139,"raan_deg":325.6826,"arg_perigee_deg":89.3483,"mean_anomaly_deg":270.7651,"bstar":6.1583e-7,"rev_number":24014,"period_min":95.43806120463,"perigee_km":538.91142970226,"apogee_km":540.62430294716,"semimajor_km":6917.9048663247,"source":"CELESTRAK","updated_at":"2026-05-25T13:38:16.915085Z"}}}